When you browse on this site, cookies collect data to enhance your experience and personalize the content and advertising you see.
Visit our Privacy Policy to learn more. By continuing to use the site, you agree to this use of cookies and data.
  • In Hungary
  • List of Countries
  • For 7 days
  • Water Temperature
  • Weather Map
  • News
  • Weather Widgets
  • user-avatar
    Login

    Hourly Weather Plaksino

    Today, 26 August, Monday

    Time Temperature Precipitation Wind Pressure Humidity
    00:00 +11°C° 0 mm 0 mps 758 mmHg 90%
    01:00 +11°C° 0 mm 0 mps 758 mmHg 91%
    02:00 +12°C° 0 mm 1 mps 759 mmHg 91%
    03:00 +12°C° 0 mm 1 mps 758 mmHg 91%
    04:00 +12°C° 0 mm 1 mps 758 mmHg 92%
    05:00 +11°C° 0 mm 1 mps 758 mmHg 92%
    06:00 +13°C° 0 mm 1 mps 758 mmHg 86%
    07:00 +15°C° 0 mm 1 mps 758 mmHg 80%
    08:00 +18°C° 0 mm 1 mps 758 mmHg 74%
    09:00 +19°C° 0 mm 2 mps 758 mmHg 70%
    10:00 +21°C° 0 mm 2 mps 757 mmHg 66%
    11:00 +24°C° 0 mm 2 mps 757 mmHg 61%
    12:00 +24°C° 0 mm 2 mps 757 mmHg 60%
    13:00 +25°C° 0 mm 3 mps 757 mmHg 58%
    14:00 +25°C° 0 mm 3 mps 757 mmHg 56%
    15:00 +25°C° 0 mm 2 mps 756 mmHg 61%
    16:00 +24°C° 0 mm 2 mps 756 mmHg 66%
    17:00 +24°C° 0 mm 2 mps 755 mmHg 70%
    18:00 +21°C° 0 mm 2 mps 755 mmHg 75%
    19:00 +20°C° 0 mm 2 mps 755 mmHg 80%
    20:00 +18°C° 0 mm 2 mps 755 mmHg 84%
    21:00 +18°C° 0 mm 2 mps 755 mmHg 87%
    22:00 +17°C° 0 mm 2 mps 755 mmHg 90%
    23:00 +17°C° 0 mm 2 mps 754 mmHg 92%

    Tomorrow, 27 August, Tuesday

    Time Temperature Precipitation Wind Pressure Humidity
    00:00 +17°C° 0 mm 2 mps 754 mmHg 94%
    01:00 +16°C° 0 mm 2 mps 754 mmHg 95%
    02:00 +16°C° 0 mm 2 mps 755 mmHg 96%
    03:00 +16°C° 0 mm 2 mps 754 mmHg 96%
    04:00 +15°C° 0 mm 2 mps 754 mmHg 97%
    05:00 +14°C° 0 mm 2 mps 754 mmHg 97%
    06:00 +16°C° 0 mm 2 mps 754 mmHg 92%
    07:00 +17°C° 0 mm 2 mps 755 mmHg 87%
    08:00 +18°C° 0 mm 2 mps 755 mmHg 83%
    09:00 +20°C° 0 mm 3 mps 755 mmHg 77%
    10:00 +21°C° 0 mm 3 mps 755 mmHg 72%
    11:00 +24°C° 0 mm 3 mps 755 mmHg 66%
    12:00 +24°C° 0 mm 3 mps 755 mmHg 63%
    13:00 +23°C° 0 mm 4 mps 755 mmHg 60%
    14:00 +25°C° 0 mm 4 mps 755 mmHg 56%
    15:00 +23°C° 0 mm 4 mps 755 mmHg 59%
    16:00 +22°C° 0 mm 3 mps 755 mmHg 61%
    17:00 +21°C° 0 mm 3 mps 755 mmHg 63%
    18:00 +19°C° 0 mm 2 mps 755 mmHg 69%
    19:00 +17°C° 0 mm 2 mps 755 mmHg 74%
    20:00 +15°C° 0 mm 2 mps 756 mmHg 80%
    21:00 +15°C° 0 mm 1 mps 756 mmHg 82%
    22:00 +14°C° 0 mm 1 mps 756 mmHg 85%
    23:00 +13°C° 0 mm 1 mps 756 mmHg 87%

    Day after tomorrow, 28 August, Wednesday

    Time Temperature Precipitation Wind Pressure Humidity
    00:00 +13°C° 0 mm 1 mps 757 mmHg 89%
    01:00 +13°C° 0 mm 1 mps 757 mmHg 91%
    02:00 +12°C° 0 mm 1 mps 757 mmHg 93%
    03:00 +12°C° 0 mm 1 mps 757 mmHg 94%
    04:00 +12°C° 0 mm 1 mps 757 mmHg 95%
    05:00 +11°C° 0 mm 1 mps 758 mmHg 96%
    06:00 +13°C° 0 mm 1 mps 758 mmHg 89%
    07:00 +14°C° 0 mm 1 mps 758 mmHg 83%
    08:00 +16°C° 0 mm 1 mps 758 mmHg 76%
    09:00 +17°C° 0 mm 2 mps 758 mmHg 68%
    10:00 +19°C° 0 mm 2 mps 758 mmHg 61%
    11:00 +20°C° 0 mm 2 mps 758 mmHg 53%
    12:00 +21°C° 0 mm 2 mps 758 mmHg 52%
    13:00 +21°C° 0 mm 2 mps 758 mmHg 51%
    14:00 +21°C° 0 mm 2 mps 758 mmHg 50%
    15:00 +21°C° 0 mm 2 mps 758 mmHg 54%
    16:00 +21°C° 0 mm 1 mps 758 mmHg 59%
    17:00 +21°C° 0 mm 1 mps 758 mmHg 64%
    18:00 +19°C° 0 mm 1 mps 758 mmHg 68%
    19:00 +18°C° 0 mm 1 mps 758 mmHg 71%
    20:00 +15°C° 0 mm 1 mps 758 mmHg 75%
    21:00 +14°C° 0 mm 1 mps 758 mmHg 77%
    22:00 +14°C° 0 mm 1 mps 758 mmHg 79%
    23:00 +13°C° 0 mm 2 mps 758 mmHg 82%

    29 August, Thursday

    Time Temperature Precipitation Wind Pressure Humidity
    00:00 +13°C° 0 mm 2 mps 758 mmHg 83%
    01:00 +12°C° 0 mm 2 mps 758 mmHg 84%
    02:00 +10°C° 0 mm 2 mps 758 mmHg 86%
    03:00 +10°C° 0 mm 2 mps 758 mmHg 85%
    04:00 +9°C° 0 mm 2 mps 758 mmHg 84%
    05:00 +9°C° 0 mm 2 mps 758 mmHg 83%
    06:00 +10°C° 0 mm 2 mps 758 mmHg 76%
    07:00 +12°C° 0 mm 2 mps 758 mmHg 70%
    08:00 +14°C° 0 mm 2 mps 758 mmHg 63%
    09:00 +15°C° 0 mm 2 mps 758 mmHg 58%
    10:00 +17°C° 0 mm 2 mps 758 mmHg 53%
    11:00 +19°C° 0 mm 2 mps 758 mmHg 48%
    12:00 +19°C° 0 mm 2 mps 757 mmHg 47%
    13:00 +20°C° 0 mm 2 mps 757 mmHg 46%
    14:00 +21°C° 0 mm 2 mps 757 mmHg 45%
    15:00 +20°C° 0 mm 2 mps 756 mmHg 50%
    16:00 +20°C° 0 mm 2 mps 756 mmHg 55%
    17:00 +19°C° 0 mm 2 mps 756 mmHg 60%
    18:00 +17°C° 0 mm 2 mps 756 mmHg 65%
    19:00 +15°C° 0 mm 2 mps 756 mmHg 71%
    20:00 +13°C° 0 mm 2 mps 755 mmHg 77%
    21:00 +13°C° 0 mm 2 mps 755 mmHg 79%
    22:00 +12°C° 0 mm 2 mps 755 mmHg 81%
    23:00 +10°C° 0 mm 2 mps 755 mmHg 84%

    30 August, Friday

    Time Temperature Precipitation Wind Pressure Humidity
    00:00 +10°C° 0 mm 2 mps 755 mmHg 85%
    01:00 +10°C° 0 mm 2 mps 755 mmHg 86%
    02:00 +9°C° 0 mm 2 mps 755 mmHg 87%
    03:00 +9°C° 0 mm 2 mps 754 mmHg 88%
    04:00 +8°C° 0 mm 2 mps 754 mmHg 88%
    05:00 +8°C° 0 mm 2 mps 754 mmHg 89%
    06:00 +10°C° 0 mm 2 mps 754 mmHg 82%
    07:00 +13°C° 0 mm 2 mps 754 mmHg 76%
    08:00 +14°C° 0 mm 2 mps 754 mmHg 70%
    09:00 +16°C° 0 mm 2 mps 754 mmHg 64%
    10:00 +18°C° 0 mm 2 mps 754 mmHg 58%
    11:00 +20°C° 0 mm 2 mps 754 mmHg 52%
    12:00 +20°C° 0 mm 3 mps 754 mmHg 51%
    13:00 +21°C° 0 mm 3 mps 754 mmHg 50%
    14:00 +22°C° 0 mm 3 mps 753 mmHg 49%
    15:00 +21°C° 0 mm 2 mps 753 mmHg 54%
    16:00 +21°C° 0 mm 2 mps 753 mmHg 58%
    17:00 +20°C° 0 mm 2 mps 753 mmHg 63%
    18:00 +18°C° 0 mm 2 mps 753 mmHg 70%
    19:00 +16°C° 0 mm 2 mps 753 mmHg 76%
    20:00 +14°C° 0 mm 2 mps 753 mmHg 82%
    21:00 +14°C° 0 mm 2 mps 753 mmHg 83%
    22:00 +14°C° 0 mm 2 mps 753 mmHg 84%
    23:00 +13°C° 0 mm 2 mps 753 mmHg 85%

    31 August, Saturday

    Time Temperature Precipitation Wind Pressure Humidity
    00:00 +13°C° 0 mm 2 mps 753 mmHg 85%
    01:00 +13°C° 0 mm 2 mps 753 mmHg 85%
    02:00 +12°C° 0 mm 2 mps 752 mmHg 86%
    03:00 +12°C° 0 mm 2 mps 752 mmHg 83%
    04:00 +12°C° 0 mm 2 mps 752 mmHg 81%
    05:00 +13°C° 0 mm 2 mps 752 mmHg 79%
    06:00 +14°C° 0 mm 2 mps 752 mmHg 76%
    07:00 +15°C° 0 mm 2 mps 752 mmHg 72%
    08:00 +16°C° 0 mm 2 mps 752 mmHg 69%
    09:00 +17°C° 0 mm 2 mps 752 mmHg 66%
    10:00 +19°C° 0 mm 2 mps 752 mmHg 62%
    11:00 +20°C° 0 mm 2 mps 752 mmHg 59%
    12:00 +21°C° 0.1 mm 2 mps 751 mmHg 59%
    13:00 +22°C° 0.1 mm 3 mps 751 mmHg 58%
    14:00 +24°C° 0.1 mm 3 mps 751 mmHg 58%
    15:00 +22°C° 0 mm 3 mps 751 mmHg 62%
    16:00 +23°C° 0 mm 2 mps 751 mmHg 66%
    17:00 +23°C° 0 mm 2 mps 750 mmHg 71%
    18:00 +20°C° 0 mm 2 mps 750 mmHg 76%
    19:00 +18°C° 0 mm 2 mps 750 mmHg 81%
    20:00 +17°C° 0 mm 2 mps 750 mmHg 87%
    21:00 +16°C° 0 mm 2 mps 750 mmHg 87%
    22:00 +16°C° 0 mm 2 mps 750 mmHg 88%
    23:00 +15°C° 0 mm 2 mps 750 mmHg 88%
    Show more